Tucson Davis Monthan, AZ

9:46 AM MST on June 24, 2018 (GMT -0700)
Davis-Monthan Air Force Base

Weather History for KDMA - October, 2017

Change the Weather History Date:

Wednesday, October 4, 2017

  Actual Average Record
Temperature  
Mean Temperature 83 °F -  
Max Temperature 100 °F 87 °F 100 °F (2017)
Min Temperature 66 °F 61 °F 47 °F (1959)
Cooling Degree Days 18    
Growing Degree Days 33 (Base 50)    
Moisture  
Dew Point 47 °F    
Average Humidity 30    
Maximum Humidity 47    
Minimum Humidity 17    
Precipitation  
Precipitation 0.00 in - - ()
Sea Level Pressure  
Sea Level Pressure 29.85 in    
Wind  
Wind Speed 5 mph (South)    
Max Wind Speed 9 mph    
Max Gust Speed -    
Visibility 9 miles    
Events      
Averages and records for this station are not official NWS values.
T = Trace of Precipitation, MM = Missing Value Source: NWS Daily Summary

Daily Weather History Graph

Daily Weather History Graph

Search for Another Location

Airport or City:

Astronomy

Oct. 04, 2017 Rise Set
Actual Time 6:19 AM MST 6:04 PM MST
Civil Twilight 5:55 AM MST 6:28 PM MST
Nautical Twilight 5:26 AM MST 6:56 PM MST
Astronomical Twilight 4:58 AM MST 7:25 PM MST
Moon 5:48 PM MST (10/4) 5:04 AM MST (10/4)
Length of Visible Light 12h 33m
Length of Day
11h 44m
Waxing Gibbous, 99% of the Moon is Illuminated
Oct 4
Waxing Gibbous
Oct 5
Full
Oct 12
Last Quarter
Oct 19
New
Oct 27
First Quarter

Hourly Weather History & Observations

Time (MST) Temp. Heat Index Dew Point Humidity Pressure Visibility Wind Dir Wind Speed Gust Speed Precip Events Conditions
12:58 AM 69.3 °F - 41.2 °F 36% 29.84 in 10.0 mi ESE 6.9 mph - N/A   Clear
1:58 AM 67.6 °F - 42.4 °F 40% 29.86 in 10.0 mi SE 3.5 mph - N/A   Clear
2:58 AM 66.9 °F - 42.4 °F 41% 29.85 in 10.0 mi SE 8.1 mph - N/A   Clear
3:58 AM 67.3 °F - 44.1 °F 43% 29.85 in 10.0 mi Calm Calm - N/A   Clear
4:58 AM 66.7 °F - 45.3 °F 46% 29.87 in 10.0 mi SE 8.1 mph - N/A   Clear
5:58 AM 66.6 °F - 45.7 °F 47% 29.88 in 10.0 mi SE 9.2 mph - N/A   Clear
6:58 AM 66.7 °F - 45.9 °F 47% 29.90 in 10.0 mi SE 6.9 mph - N/A   Clear
7:58 AM 73.2 °F - 45.3 °F 37% 29.91 in 10.0 mi SE 9.2 mph - N/A   Clear
8:58 AM 79.5 °F - 45.3 °F 30% 29.92 in 10.0 mi Calm Calm - N/A   Clear
9:58 AM 86.0 °F - 46.0 °F 25% 29.92 in 10.0 mi SSW 3.5 mph - N/A   Clear
10:58 AM 91.6 °F - 47.3 °F 22% 29.91 in 10.0 mi Calm Calm - N/A   Clear
11:58 AM 94.8 °F - 47.5 °F 20% 29.88 in 10.0 mi NE 4.6 mph - N/A   Clear
12:58 PM 97.9 °F - 47.1 °F 18% 29.85 in 10.0 mi Calm Calm - N/A   Clear
1:58 PM 96.8 °F - 50.0 °F 20% 29.84 in 10.0 mi WSW 3.5 mph - N/A   Partly Cloudy
2:55 PM 100.8 °F - 47.8 °F 17% 29.81 in 10.0 mi SW 5.8 mph - N/A   Mostly Cloudy
3:55 PM 98.6 °F - 51.8 °F 21% 29.91 in 7.0 mi SW 5.8 mph - N/A   Mostly Cloudy
4:58 PM 97.0 °F 95.3 °F 55.2 °F 25% 29.77 in 7.0 mi SW 3.5 mph - N/A   Mostly Cloudy
5:58 PM 92.1 °F - 48.2 °F 22% 29.79 in 7.0 mi WSW 9.2 mph - N/A   Scattered Clouds
6:57 PM 85.8 °F - 48.7 °F 28% 29.81 in 7.0 mi Variable 4.6 mph - N/A   Scattered Clouds
7:55 PM 84.9 °F - 46.8 °F 26% 29.82 in 7.0 mi WNW 6.9 mph - N/A   Scattered Clouds
8:55 PM 83.8 °F - 46.0 °F 27% 29.82 in 7.0 mi WNW 5.8 mph - N/A   Scattered Clouds
9:55 PM 83.1 °F - 46.6 °F 28% 29.83 in 7.0 mi Variable 4.6 mph - N/A   Scattered Clouds
10:55 PM 81.1 °F - 45.9 °F 29% 29.83 in 7.0 mi South 4.6 mph - N/A   Scattered Clouds
11:55 PM 81.0 °F - 46.2 °F 29% 29.83 in 7.0 mi SSE 4.6 mph - N/A   Mostly Cloudy